This is the latest recevied weather packets stored in our database for station/object KE5AKC. If no packets are shown the sender has not sent any weather packets the latest 10 day(s).
| Time | Temp. | Humidity | Pressure | Rain* | Wind** | Luminosity | Snow |
|---|---|---|---|---|---|---|---|
| 1777841303 | 27.22° C | 33% | 1019.5 hPa | 0 mm | - | 802 W/m² | - |
| 1777841001 | 26.67° C | 34% | 1019.5 hPa | 0 mm | - | 808 W/m² | - |
| 1777840698 | 26.67° C | 33% | 1019.5 hPa | 0 mm | - | 822 W/m² | - |
| 1777840395 | 26.67° C | 32% | 1019.5 hPa | 0 mm | - | 851 W/m² | - |
| 1777840092 | 26.11° C | 35% | 1019.5 hPa | 0 mm | - | 896 W/m² | - |
| 1777839790 | 26.67° C | 33% | 1019.8 hPa | 0 mm | - | 154 W/m² | - |
| 1777839488 | 26.67° C | 33% | 1019.8 hPa | 0 mm | - | 194 W/m² | - |
| 1777839184 | 26.67° C | 33% | 1020.2 hPa | 0 mm | - | 893 W/m² | - |
| 1777838882 | 27.78° C | 29% | 1020.2 hPa | 0 mm | - | 888 W/m² | - |
| 1777838578 | 28.33° C | 30% | 1020.5 hPa | 0 mm | - | 902 W/m² | - |
| 1777838276 | 27.78° C | 33% | 1020.5 hPa | 0 mm | - | 912 W/m² | - |
| 1777837971 | 27.22° C | 31% | 1020.5 hPa | 0 mm | - | 933 W/m² | - |
| 1777837663 | 27.22° C | 32% | 1020.5 hPa | 0 mm | - | 934 W/m² | - |
| 1777837359 | 27.22° C | 32% | 1020.5 hPa | 0 mm | - | 932 W/m² | - |
| 1777837055 | 27.22° C | 33% | 1020.5 hPa | 0 mm | - | 932 W/m² | - |
| 1777836752 | 27.78° C | 32% | 1020.5 hPa | 0 mm | - | 953 W/m² | - |
| 1777836447 | 27.22° C | 32% | 1020.5 hPa | 0 mm | - | 968 W/m² | - |
| 1777836143 | 26.11° C | 34% | 1020.8 hPa | 0 mm | - | 948 W/m² | - |
| 1777835840 | 26.11° C | 32% | 1021.2 hPa | 0 mm | - | 958 W/m² | - |
| 1777835537 | 26.67° C | 32% | 1021.2 hPa | 0 mm | - | 971 W/m² | - |
| 1777835234 | 27.22° C | 34% | 1021.2 hPa | 0 mm | - | 973 W/m² | - |
| 1777834930 | 27.22° C | 32% | 1021.2 hPa | 0 mm | - | 979 W/m² | - |
| 1777834628 | 27.22° C | 32% | 1021.2 hPa | 0 mm | - | 984 W/m² | - |
| 1777834322 | 26.67° C | 32% | 1021.2 hPa | 0 mm | - | 989 W/m² | - |
| 1777834017 | 27.22° C | 31% | 1021.5 hPa | 0 mm | - | 994 W/m² | - |
* Rain latest hour (hover to see other rain measurements)
** Current wind speed in m/s (hover to see current wind gust speed)